| time (UTC) | temp F | wind direction | speed knots | gust knots | rain 1hr in | rain 24hr in | rain mn in | humidity % | barometer mb |
| 20260906212444 | 94 | 121 | 8.7 | 13.0 | 0.00 | 0.00 | 0.00 | 32 | 1016.7 |
| 20260906211939 | 94 | 124 | 14.8 | 19.1 | 0.00 | 0.00 | 0.00 | 33 | 1016.7 |
| 20260906211434 | 93 | 134 | 7.8 | 10.4 | 0.00 | 0.00 | 0.00 | 33 | 1016.8 |
| 20260906210929 | 93 | 172 | 4.3 | 6.1 | 0.00 | 0.00 | 0.00 | 33 | 1016.7 |
| 20260906210424 | 93 | 158 | 7.0 | 8.7 | 0.00 | 0.00 | 0.00 | 33 | 1016.9 |
| 20260906205918 | 92 | 173 | 11.3 | 14.8 | 0.00 | 0.00 | 0.00 | 34 | 1017.0 |
| 20260906205409 | 93 | 116 | 10.4 | 13.0 | 0.00 | 0.00 | 0.00 | 34 | 1017.0 |
| 20260906204905 | 94 | 135 | 4.3 | 7.8 | 0.00 | 0.00 | 0.00 | 33 | 1016.9 |
| 20260906204404 | 92 | 169 | 6.1 | 7.8 | 0.00 | 0.00 | 0.00 | 34 | 1017.2 |
| 20260906203903 | 93 | 131 | 11.3 | 16.5 | 0.00 | 0.00 | 0.00 | 34 | 1017.0 |
| 20260906203358 | 93 | 230 | 8.7 | 12.2 | 0.00 | 0.00 | 0.00 | 33 | 1017.1 |
| 20260906202856 | 94 | 152 | 8.7 | 12.2 | 0.00 | 0.00 | 0.00 | 33 | 1017.1 |
| 20260906202350 | 93 | 163 | 14.8 | 20.9 | 0.00 | 0.00 | 0.00 | 34 | 1016.9 |
| 20260906201849 | 93 | 131 | 16.5 | 20.9 | 0.00 | 0.00 | 0.00 | 34 | 1016.9 |
| 20260906201344 | 93 | 239 | 5.2 | 6.1 | 0.00 | 0.00 | 0.00 | 34 | 1016.8 |
| 20260906200839 | 93 | 131 | 4.3 | 6.1 | 0.00 | 0.00 | 0.00 | 35 | 1017.1 |
| 20260906200335 | 92 | 183 | 2.6 | 4.3 | 0.00 | 0.00 | 0.00 | 35 | 1017.0 |
| 20260906195830 | 94 | 137 | 9.6 | 14.8 | 0.00 | 0.00 | 0.00 | 34 | 1017.4 |
| 20260906195327 | 94 | 136 | 7.8 | 10.4 | 0.00 | 0.00 | 0.00 | 34 | 1017.4 |
| 20260906194823 | 94 | 150 | 2.6 | 4.3 | 0.00 | 0.00 | 0.00 | 34 | 1017.4 |
| 20260906194318 | 93 | 182 | 9.6 | 14.8 | 0.00 | 0.00 | 0.00 | 33 | 1017.7 |
| 20260906193813 | 93 | 129 | 14.8 | 16.5 | 0.00 | 0.00 | 0.00 | 34 | 1017.5 |
| 20260906193308 | 92 | 142 | 9.6 | 16.5 | 0.00 | 0.00 | 0.00 | 34 | 1017.5 |
| 20260906192804 | 92 | 172 | 11.3 | 16.5 | 0.00 | 0.00 | 0.00 | 34 | 1017.8 |
| 20260906192306 | 93 | 203 | 12.2 | 14.8 | 0.00 | 0.00 | 0.00 | 35 | 1017.9 |
| 20260906191802 | 93 | 94 | 8.7 | 13.0 | 0.00 | 0.00 | 0.00 | 35 | 1018.0 |
| 20260906191257 | 93 | 171 | 12.2 | 14.8 | 0.00 | 0.00 | 0.00 | 35 | 1017.9 |
| 20260906190758 | 93 | 119 | 5.2 | 7.8 | 0.00 | 0.00 | 0.00 | 35 | 1017.9 |
| 20260906190252 | 92 | 187 | 7.8 | 8.7 | 0.00 | 0.00 | 0.00 | 36 | 1017.9 |
| 20260906185751 | 92 | 153 | 13.0 | 14.8 | 0.00 | 0.00 | 0.00 | 36 | 1018.0 |
| 20260906185250 | 91 | 163 | 14.8 | 19.1 | 0.00 | 0.00 | 0.00 | 36 | 1018.2 |
| 20260906184745 | 90 | 168 | 4.3 | 6.1 | 0.00 | 0.00 | 0.00 | 38 | 1018.4 |
| 20260906184240 | 92 | 141 | 12.2 | 14.8 | 0.00 | 0.00 | 0.00 | 37 | 1018.2 |
| 20260906183736 | 91 | 151 | 13.0 | 18.2 | 0.00 | 0.00 | 0.00 | 38 | 1018.2 |
| 20260906183233 | 91 | 127 | 13.0 | 14.8 | 0.00 | 0.00 | 0.00 | 39 | 1018.5 |
| 20260906182732 | 91 | 175 | 6.1 | 7.8 | 0.00 | 0.00 | 0.00 | 39 | 1018.4 |
| 20260906182228 | 91 | 156 | 8.7 | 10.4 | 0.00 | 0.00 | 0.00 | 39 | 1018.4 |
| 20260906181723 | 92 | 161 | 16.5 | 18.2 | 0.00 | 0.00 | 0.00 | 38 | 1018.7 |
| 20260906181219 | 91 | 192 | 3.5 | 4.3 | 0.00 | 0.00 | 0.00 | 38 | 1018.5 |
| 20260906180714 | 91 | 175 | 12.2 | 14.8 | 0.00 | 0.00 | 0.00 | 38 | 1018.7 |
| 20260906180209 | 92 | 89 | 4.3 | 6.1 | 0.00 | 0.00 | 0.00 | 38 | 1018.7 |
| 20260906175707 | 91 | 200 | 10.4 | 13.0 | 0.00 | 0.00 | 0.00 | 38 | 1018.8 |
| 20260906175203 | 91 | 157 | 11.3 | 16.5 | 0.00 | 0.00 | 0.00 | 38 | 1019.0 |
| 20260906174700 | 91 | 147 | 13.9 | 19.1 | 0.00 | 0.00 | 0.00 | 38 | 1018.8 |
| 20260906174155 | 90 | 190 | 6.1 | 7.8 | 0.00 | 0.00 | 0.00 | 36 | 1019.1 |
| 20260906173650 | 91 | 162 | 9.6 | 12.2 | 0.00 | 0.00 | 0.00 | 37 | 1019.1 |
| 20260906173146 | 90 | 102 | 5.2 | 7.8 | 0.00 | 0.00 | 0.00 | 38 | 1018.9 |
| 20260906172645 | 90 | 138 | 10.4 | 14.8 | 0.00 | 0.00 | 0.00 | 37 | 1019.1 |
| 20260906172141 | 91 | 122 | 11.3 | 18.2 | 0.00 | 0.00 | 0.00 | 38 | 1019.1 |
| 20260906171640 | 89 | 180 | 8.7 | 12.2 | 0.00 | 0.00 | 0.00 | 39 | 1019.1 |
| 20260906171136 | 90 | 182 | 8.7 | 10.4 | 0.00 | 0.00 | 0.00 | 41 | 1019.1 |
| 20260906170632 | 89 | 216 | 5.2 | 6.1 | 0.00 | 0.00 | 0.00 | 41 | 1019.2 |
| 20260906170131 | 89 | 183 | 13.0 | 16.5 | 0.00 | 0.00 | 0.00 | 40 | 1019.2 |
| 20260906165628 | 89 | 212 | 6.1 | 7.8 | 0.00 | 0.00 | 0.00 | 42 | 1019.2 |
| 20260906165123 | 89 | 169 | 10.4 | 13.0 | 0.00 | 0.00 | 0.00 | 41 | 1019.2 |
| 20260906164622 | 89 | 193 | 10.4 | 13.0 | 0.00 | 0.00 | 0.00 | 43 | 1019.1 |
| 20260906164117 | 89 | 195 | 13.9 | 18.2 | 0.00 | 0.00 | 0.00 | 43 | 1019.3 |
| 20260906163613 | 89 | 183 | 9.6 | 12.2 | 0.00 | 0.00 | 0.00 | 45 | 1019.5 |
| 20260906163108 | 89 | 178 | 5.2 | 8.7 | 0.00 | 0.00 | 0.00 | 46 | 1019.5 |
| 20260906162605 | 88 | 200 | 13.9 | 16.5 | 0.00 | 0.00 | 0.00 | 45 | 1019.5 |
| 20260906162100 | 87 | 209 | 7.0 | 8.7 | 0.00 | 0.00 | 0.00 | 48 | 1019.5 |
| 20260906161555 | 87 | 220 | 11.3 | 18.2 | 0.00 | 0.00 | 0.00 | 48 | 1019.3 |
| 20260906161054 | 87 | 201 | 8.7 | 10.4 | 0.00 | 0.00 | 0.00 | 48 | 1019.2 |
| 20260906160553 | 88 | 198 | 11.3 | 14.8 | 0.00 | 0.00 | 0.00 | 48 | 1019.5 |
| 20260906160052 | 87 | 197 | 10.4 | 13.0 | 0.00 | 0.00 | 0.00 | 49 | 1019.2 |
| 20260906155550 | 87 | 170 | 7.8 | 8.7 | 0.00 | 0.00 | 0.00 | 49 | 1019.5 |
| 20260906155046 | 86 | 218 | 9.6 | 12.2 | 0.00 | 0.00 | 0.00 | 49 | 1019.2 |
| 20260906154541 | 86 | 220 | 5.2 | 7.8 | 0.00 | 0.00 | 0.00 | 50 | 1019.2 |
| 20260906154040 | 86 | 172 | 10.4 | 13.0 | 0.00 | 0.00 | 0.00 | 50 | 1019.1 |
| 20260906153538 | 86 | 193 | 13.0 | 18.2 | 0.00 | 0.00 | 0.00 | 51 | 1019.0 |
| 20260906153034 | 85 | 237 | 5.2 | 6.1 | 0.00 | 0.00 | 0.00 | 51 | 1019.1 |
| 20260906152533 | 85 | 199 | 7.0 | 10.4 | 0.00 | 0.00 | 0.00 | 51 | 1019.2 |
| 20260906152033 | 85 | 200 | 7.8 | 10.4 | 0.00 | 0.00 | 0.00 | 52 | 1019.0 |
| 20260906151528 | 84 | 173 | 7.0 | 10.4 | 0.00 | 0.00 | 0.00 | 52 | 1019.0 |
| 20260906151025 | 84 | 179 | 11.3 | 13.0 | 0.00 | 0.00 | 0.00 | 52 | 1019.0 |
| 20260906150519 | 84 | 140 | 12.2 | 14.8 | 0.00 | 0.00 | 0.00 | 53 | 1018.8 |
| 20260906150015 | 83 | 186 | 11.3 | 14.8 | 0.00 | 0.00 | 0.00 | 52 | 1019.1 |
| 20260906145513 | 83 | 176 | 13.0 | 16.5 | 0.00 | 0.00 | 0.00 | 53 | 1018.9 |
| 20260906145008 | 83 | 175 | 5.2 | 8.7 | 0.00 | 0.00 | 0.00 | 53 | 1019.1 |
| 20260906144502 | 83 | 210 | 9.6 | 14.8 | 0.00 | 0.00 | 0.00 | 54 | 1018.8 |
| 20260906143952 | 82 | 198 | 11.3 | 14.8 | 0.00 | 0.00 | 0.00 | 54 | 1018.8 |
| 20260906143447 | 82 | 166 | 9.6 | 13.0 | 0.00 | 0.00 | 0.00 | 55 | 1018.9 |
| 20260906142944 | 81 | 231 | 3.5 | 6.1 | 0.00 | 0.00 | 0.00 | 56 | 1018.9 |
| 20260906142442 | 81 | 185 | 7.8 | 10.4 | 0.00 | 0.00 | 0.00 | 55 | 1018.7 |
| 20260906141938 | 80 | 209 | 6.1 | 7.8 | 0.00 | 0.00 | 0.00 | 55 | 1018.8 |
| 20260906141431 | 80 | 220 | 6.1 | 8.7 | 0.00 | 0.00 | 0.00 | 56 | 1018.8 |
| 20260906140926 | 79 | 179 | 7.8 | 10.4 | 0.00 | 0.00 | 0.00 | 56 | 1018.8 |
| 20260906140421 | 80 | 181 | 9.6 | 10.4 | 0.00 | 0.00 | 0.00 | 56 | 1018.6 |
| 20260906135918 | 79 | 175 | 6.1 | 8.7 | 0.00 | 0.00 | 0.00 | 56 | 1018.8 |
| 20260906135412 | 79 | 195 | 7.8 | 10.4 | 0.00 | 0.00 | 0.00 | 56 | 1018.8 |
| 20260906134908 | 78 | 157 | 9.6 | 12.2 | 0.00 | 0.00 | 0.00 | 57 | 1018.8 |
| 20260906134403 | 78 | 162 | 4.3 | 4.3 | 0.00 | 0.00 | 0.00 | 58 | 1018.8 |
| 20260906133858 | 78 | 174 | 7.8 | 8.7 | 0.00 | 0.00 | 0.00 | 58 | 1018.5 |
| 20260906133354 | 77 | 172 | 8.7 | 10.4 | 0.00 | 0.00 | 0.00 | 58 | 1018.5 |
| 20260906132849 | 77 | 172 | 7.8 | 8.7 | 0.00 | 0.00 | 0.00 | 59 | 1018.5 |
| 20260906132344 | 76 | 180 | 7.8 | 8.7 | 0.00 | 0.00 | 0.00 | 59 | 1018.2 |
| 20260906131840 | 76 | 202 | 6.1 | 7.8 | 0.00 | 0.00 | 0.00 | 60 | 1018.1 |
| 20260906131335 | 75 | 195 | 6.1 | 7.8 | 0.00 | 0.00 | 0.00 | 61 | 1018.0 |
| 20260906130831 | 75 | 194 | 2.6 | 2.6 | 0.00 | 0.00 | 0.00 | 62 | 1018.1 |
| 20260906130330 | 74 | 187 | 3.5 | 4.3 | 0.00 | 0.00 | 0.00 | 62 | 1018.0 |
| 20260906125830 | 73 | 165 | 6.1 | 7.8 | 0.00 | 0.00 | 0.00 | 63 | 1017.9 |
| 20260906125327 | 73 | 192 | 4.3 | 6.1 | 0.00 | 0.00 | 0.00 | 63 | 1018.0 |
| 20260906124822 | 73 | 190 | 2.6 | 2.6 | 0.00 | 0.00 | 0.00 | 63 | 1018.0 |
| 20260906124318 | 73 | 190 | 3.5 | 4.3 | 0.00 | 0.00 | 0.00 | 63 | 1017.9 |
| 20260906123816 | 73 | 203 | 2.6 | 2.6 | 0.00 | 0.00 | 0.00 | 63 | 1017.8 |
| 20260906123311 | 73 | 192 | 4.3 | 7.8 | 0.00 | 0.00 | 0.00 | 62 | 1017.8 |
| 20260906122811 | 73 | 187 | 4.3 | 6.1 | 0.00 | 0.00 | 0.00 | 62 | 1017.8 |
| 20260906122301 | 74 | 194 | 7.8 | 10.4 | 0.00 | 0.00 | 0.00 | 62 | 1017.7 |
| 20260906121757 | 73 | 186 | 6.1 | 8.7 | 0.00 | 0.00 | 0.00 | 63 | 1017.5 |
| 20260906121248 | 73 | 144 | 6.1 | 10.4 | 0.00 | 0.00 | 0.00 | 63 | 1017.6 |
| 20260906120743 | 73 | 131 | 7.8 | 8.7 | 0.00 | 0.00 | 0.00 | 63 | 1017.7 |
| 20260906120240 | 74 | 184 | 3.5 | 6.1 | 0.00 | 0.00 | 0.00 | 62 | 1017.6 |
| 20260906115735 | 74 | 193 | 4.3 | 6.1 | 0.00 | 0.00 | 0.00 | 61 | 1017.7 |
| 20260906115230 | 74 | 182 | 4.3 | 6.1 | 0.00 | 0.00 | 0.00 | 61 | 1017.7 |
| 20260906114729 | 75 | 203 | 8.7 | 10.4 | 0.00 | 0.00 | 0.00 | 60 | 1017.8 |
| 20260906114224 | 75 | 203 | 6.1 | 7.8 | 0.00 | 0.00 | 0.00 | 60 | 1017.6 |
| 20260906113720 | 75 | 176 | 3.5 | 6.1 | 0.00 | 0.00 | 0.00 | 60 | 1017.8 |
| 20260906113218 | 74 | 175 | 4.3 | 6.1 | 0.00 | 0.00 | 0.00 | 60 | 1017.6 |
| 20260906112713 | 74 | 132 | 3.5 | 4.3 | 0.00 | 0.00 | 0.00 | 61 | 1017.8 |
| 20260906112210 | 74 | 117 | 1.7 | 4.3 | 0.00 | 0.00 | 0.00 | 61 | 1017.9 |
| 20260906111708 | 75 | 120 | 5.2 | 7.8 | 0.00 | 0.00 | 0.00 | 61 | 1018.2 |
| 20260906111157 | 75 | 106 | 1.7 | 1.7 | 0.00 | 0.00 | 0.00 | 61 | 1018.1 |
| 20260906110652 | 75 | 121 | 0.9 | 1.7 | 0.00 | 0.00 | 0.00 | 61 | 1018.4 |
| 20260906110147 | 74 | 131 | 2.6 | 4.3 | 0.00 | 0.00 | 0.00 | 61 | 1018.0 |
| 20260906105642 | 74 | 149 | 4.3 | 4.3 | 0.00 | 0.00 | 0.00 | 61 | 1018.0 |
| 20260906105138 | 74 | 169 | 3.5 | 4.3 | 0.00 | 0.00 | 0.00 | 63 | 1018.1 |
| 20260906104637 | 73 | 25 | 1.7 | 2.6 | 0.00 | 0.00 | 0.00 | 64 | 1018.1 |
| 20260906104136 | 73 | 11 | 1.7 | 4.3 | 0.00 | 0.00 | 0.00 | 66 | 1018.2 |
| 20260906103635 | 74 | 18 | 5.2 | 6.1 | 0.00 | 0.00 | 0.00 | 64 | 1018.0 |
| 20260906103130 | 75 | 48 | 0.0 | 0.0 | 0.00 | 0.00 | 0.00 | 60 | 1018.1 |
| 20260906102625 | 75 | 84 | 1.7 | 2.6 | 0.00 | 0.00 | 0.00 | 59 | 1017.9 |
| 20260906102120 | 75 | 90 | 0.9 | 1.7 | 0.00 | 0.00 | 0.00 | 59 | 1018.1 |
| 20260906101614 | 76 | 83 | 1.7 | 2.6 | 0.00 | 0.00 | 0.00 | 58 | 1017.8 |
| 20260906101114 | 76 | 148 | 3.5 | 4.3 | 0.00 | 0.00 | 0.00 | 58 | 1018.0 |
| 20260906100610 | 76 | 146 | 4.3 | 6.1 | 0.00 | 0.00 | 0.00 | 58 | 1017.8 |
| 20260906100110 | 76 | 144 | 4.3 | 4.3 | 0.00 | 0.00 | 0.00 | 58 | 1017.9 |
| 20260906095610 | 76 | 128 | 4.3 | 4.3 | 0.00 | 0.00 | 0.00 | 58 | 1017.9 |
| 20260906095105 | 76 | 153 | 4.3 | 6.1 | 0.00 | 0.00 | 0.00 | 57 | 1017.8 |
| 20260906094604 | 76 | 184 | 4.3 | 6.1 | 0.00 | 0.00 | 0.00 | 57 | 1017.9 |
| 20260906094100 | 76 | 143 | 6.1 | 7.8 | 0.00 | 0.00 | 0.00 | 57 | 1017.9 |
| 20260906093556 | 76 | 160 | 2.6 | 2.6 | 0.00 | 0.00 | 0.00 | 58 | 1017.9 |
| 20260906093051 | 76 | 127 | 5.2 | 7.8 | 0.00 | 0.00 | 0.00 | 58 | 1018.0 |
| 20260906092546 | 76 | 173 | 7.8 | 8.7 | 0.00 | 0.00 | 0.00 | 58 | 1017.8 |
| 20260906092041 | 76 | 146 | 6.1 | 7.8 | 0.00 | 0.00 | 0.00 | 57 | 1017.8 |
| 20260906091537 | 77 | 164 | 4.3 | 6.1 | 0.00 | 0.00 | 0.00 | 57 | 1017.6 |
| 20260906091034 | 77 | 175 | 5.2 | 7.8 | 0.00 | 0.00 | 0.00 | 57 | 1017.7 |
| 20260906090533 | 77 | 180 | 7.0 | 8.7 | 0.00 | 0.00 | 0.00 | 56 | 1017.8 |
| 20260906090028 | 77 | 186 | 6.1 | 10.4 | 0.00 | 0.00 | 0.00 | 56 | 1017.7 |
| 20260906085527 | 77 | 169 | 5.2 | 6.1 | 0.00 | 0.00 | 0.00 | 56 | 1017.5 |
| 20260906085027 | 77 | 202 | 5.2 | 7.8 | 0.00 | 0.00 | 0.00 | 56 | 1017.5 |
| 20260906084522 | 77 | 145 | 6.1 | 7.8 | 0.00 | 0.00 | 0.00 | 56 | 1017.4 |
| 20260906084020 | 77 | 143 | 6.1 | 7.8 | 0.00 | 0.00 | 0.00 | 56 | 1017.5 |
| 20260906083517 | 77 | 171 | 6.1 | 8.7 | 0.00 | 0.00 | 0.00 | 56 | 1017.1 |
| 20260906083016 | 77 | 151 | 6.1 | 8.7 | 0.00 | 0.00 | 0.00 | 56 | 1017.4 |
| 20260906082511 | 77 | 166 | 7.8 | 10.4 | 0.00 | 0.00 | 0.00 | 56 | 1017.4 |
| 20260906082007 | 77 | 101 | 4.3 | 6.1 | 0.00 | 0.00 | 0.00 | 56 | 1017.4 |
| 20260906081503 | 77 | 168 | 6.1 | 7.8 | 0.00 | 0.00 | 0.00 | 56 | 1017.2 |
| 20260906080958 | 77 | 166 | 8.7 | 12.2 | 0.00 | 0.00 | 0.00 | 56 | 1017.7 |
| 20260906080454 | 77 | 137 | 7.0 | 7.8 | 0.00 | 0.00 | 0.00 | 56 | 1017.5 |
| 20260906075949 | 77 | 154 | 5.2 | 7.8 | 0.00 | 0.00 | 0.00 | 55 | 1017.4 |
| 20260906075443 | 77 | 166 | 6.1 | 7.8 | 0.00 | 0.00 | 0.00 | 55 | 1017.5 |
| 20260906074939 | 77 | 130 | 6.1 | 10.4 | 0.00 | 0.00 | 0.00 | 55 | 1017.1 |
| 20260906074433 | 77 | 183 | 8.7 | 10.4 | 0.00 | 0.00 | 0.00 | 55 | 1017.5 |
| 20260906073932 | 78 | 200 | 5.2 | 7.8 | 0.00 | 0.00 | 0.00 | 55 | 1017.5 |
| 20260906073427 | 78 | 143 | 3.5 | 7.8 | 0.00 | 0.00 | 0.00 | 54 | 1017.7 |
| 20260906072923 | 78 | 131 | 4.3 | 6.1 | 0.00 | 0.00 | 0.00 | 54 | 1017.7 |
| 20260906072418 | 78 | 161 | 9.6 | 12.2 | 0.00 | 0.00 | 0.00 | 54 | 1017.6 |
| 20260906071914 | 78 | 155 | 7.8 | 8.7 | 0.00 | 0.00 | 0.00 | 54 | 1017.6 |
| 20260906071410 | 78 | 162 | 9.6 | 10.4 | 0.00 | 0.00 | 0.00 | 54 | 1017.6 |
| 20260906070906 | 78 | 152 | 7.8 | 12.2 | 0.00 | 0.00 | 0.00 | 54 | 1017.7 |
| 20260906070402 | 78 | 168 | 5.2 | 7.8 | 0.00 | 0.00 | 0.00 | 54 | 1018.0 |
| 20260906065856 | 78 | 173 | 5.2 | 7.8 | 0.00 | 0.00 | 0.00 | 54 | 1017.9 |
| 20260906065350 | 78 | 201 | 4.3 | 7.8 | 0.00 | 0.00 | 0.00 | 54 | 1018.1 |
| 20260906064846 | 78 | 163 | 8.7 | 10.4 | 0.00 | 0.00 | 0.00 | 53 | 1017.8 |
| 20260906064342 | 78 | 194 | 5.2 | 7.8 | 0.00 | 0.00 | 0.00 | 53 | 1017.7 |
| 20260906063836 | 78 | 169 | 6.1 | 8.7 | 0.00 | 0.00 | 0.00 | 53 | 1017.8 |
| 20260906063332 | 78 | 188 | 7.8 | 10.4 | 0.00 | 0.00 | 0.00 | 53 | 1017.6 |
| 20260906062827 | 78 | 181 | 10.4 | 12.2 | 0.00 | 0.00 | 0.00 | 53 | 1017.8 |
| 20260906062326 | 78 | 160 | 5.2 | 7.8 | 0.00 | 0.00 | 0.00 | 54 | 1017.7 |
| 20260906061821 | 78 | 154 | 8.7 | 10.4 | 0.00 | 0.00 | 0.00 | 54 | 1017.7 |
| 20260906061318 | 78 | 176 | 6.1 | 8.7 | 0.00 | 0.00 | 0.00 | 53 | 1017.7 |
| 20260906060813 | 78 | 155 | 6.1 | 8.7 | 0.00 | 0.00 | 0.00 | 53 | 1017.8 |
| 20260906060311 | 79 | 180 | 8.7 | 14.8 | 0.00 | 0.00 | 0.00 | 53 | 1017.8 |
| 20260906055807 | 79 | 190 | 7.8 | 10.4 | 0.00 | 0.00 | 0.00 | 53 | 1017.7 |
| 20260906055306 | 79 | 191 | 1.7 | 2.6 | 0.00 | 0.00 | 0.00 | 52 | 1017.6 |
| 20260906054756 | 79 | 159 | 7.8 | 8.7 | 0.00 | 0.00 | 0.00 | 52 | 1017.6 |
| 20260906054252 | 79 | 165 | 7.8 | 8.7 | 0.00 | 0.00 | 0.00 | 52 | 1017.6 |
| 20260906053748 | 79 | 145 | 8.7 | 13.0 | 0.00 | 0.00 | 0.00 | 51 | 1017.5 |
| 20260906053243 | 80 | 141 | 8.7 | 10.4 | 0.00 | 0.00 | 0.00 | 51 | 1017.7 |
| 20260906052738 | 80 | 191 | 7.0 | 8.7 | 0.00 | 0.00 | 0.00 | 51 | 1017.5 |
| 20260906052229 | 80 | 182 | 9.6 | 12.2 | 0.00 | 0.00 | 0.00 | 50 | 1017.1 |
| 20260906051726 | 80 | 175 | 10.4 | 12.2 | 0.00 | 0.00 | 0.00 | 49 | 1017.6 |
| 20260906051225 | 81 | 204 | 7.8 | 10.4 | 0.00 | 0.00 | 0.00 | 49 | 1017.5 |
| 20260906050720 | 81 | 145 | 12.2 | 14.8 | 0.00 | 0.00 | 0.00 | 48 | 1017.4 |
| 20260906050215 | 82 | 122 | 13.9 | 18.2 | 0.00 | 0.00 | 0.00 | 48 | 1017.4 |
| 20260906045708 | 82 | 139 | 12.2 | 19.1 | 0.00 | 0.00 | 0.00 | 47 | 1017.6 |
| 20260906045203 | 82 | 175 | 14.8 | 19.1 | 0.00 | 0.00 | 0.00 | 47 | 1017.6 |
| 20260906044700 | 82 | 152 | 9.6 | 12.2 | 0.00 | 0.00 | 0.00 | 47 | 1017.4 |
| 20260906044154 | 82 | 174 | 9.6 | 10.4 | 0.00 | 0.00 | 0.00 | 47 | 1017.8 |
| 20260906043650 | 82 | 138 | 17.4 | 20.9 | 0.00 | 0.00 | 0.00 | 46 | 1017.5 |
| 20260906043146 | 83 | 166 | 10.4 | 12.2 | 0.00 | 0.00 | 0.00 | 46 | 1017.6 |
| 20260906042645 | 83 | 127 | 10.4 | 13.0 | 0.00 | 0.00 | 0.00 | 46 | 1017.7 |
| 20260906042139 | 83 | 130 | 13.0 | 16.5 | 0.00 | 0.00 | 0.00 | 46 | 1017.8 |
| 20260906041635 | 83 | 147 | 17.4 | 22.6 | 0.00 | 0.00 | 0.00 | 46 | 1017.7 |
| 20260906041130 | 83 | 127 | 15.6 | 19.1 | 0.00 | 0.00 | 0.00 | 46 | 1017.8 |
| 20260906040626 | 83 | 148 | 12.2 | 16.5 | 0.00 | 0.00 | 0.00 | 47 | 1017.6 |
| 20260906040121 | 83 | 120 | 11.3 | 16.5 | 0.00 | 0.00 | 0.00 | 47 | 1017.7 |
| 20260906035616 | 83 | 131 | 8.7 | 12.2 | 0.00 | 0.00 | 0.00 | 47 | 1017.6 |
| 20260906035111 | 83 | 148 | 14.8 | 22.6 | 0.00 | 0.00 | 0.00 | 47 | 1017.5 |
| 20260906034606 | 83 | 146 | 10.4 | 12.2 | 0.00 | 0.00 | 0.00 | 47 | 1017.7 |
| 20260906034100 | 83 | 130 | 9.6 | 13.0 | 0.00 | 0.00 | 0.00 | 47 | 1017.7 |
| 20260906033556 | 83 | 151 | 11.3 | 13.0 | 0.00 | 0.00 | 0.00 | 47 | 1017.6 |
| 20260906033051 | 83 | 155 | 8.7 | 12.2 | 0.00 | 0.00 | 0.00 | 47 | 1017.7 |
| 20260906032547 | 83 | 156 | 9.6 | 12.2 | 0.00 | 0.00 | 0.00 | 47 | 1017.6 |
| 20260906032042 | 84 | 123 | 6.1 | 8.7 | 0.00 | 0.00 | 0.00 | 47 | 1017.4 |
| 20260906031537 | 84 | 71 | 7.0 | 12.2 | 0.00 | 0.00 | 0.00 | 47 | 1017.6 |
| 20260906031028 | 84 | 138 | 8.7 | 10.4 | 0.00 | 0.00 | 0.00 | 47 | 1017.4 |
| 20260906030527 | 84 | 141 | 10.4 | 13.0 | 0.00 | 0.00 | 0.00 | 47 | 1017.1 |
| 20260906030026 | 84 | 160 | 5.2 | 6.1 | 0.00 | 0.00 | 0.00 | 47 | 1017.1 |
| 20260906025526 | 85 | 80 | 5.2 | 7.8 | 0.00 | 0.00 | 0.00 | 46 | 1017.1 |
| 20260906025024 | 85 | 102 | 2.6 | 4.3 | 0.00 | 0.00 | 0.00 | 45 | 1016.8 |
| 20260906024519 | 85 | 139 | 10.4 | 16.5 | 0.00 | 0.00 | 0.00 | 45 | 1016.8 |
| 20260906024014 | 85 | 135 | 11.3 | 14.8 | 0.00 | 0.00 | 0.00 | 45 | 1017.0 |
| 20260906023510 | 85 | 121 | 10.4 | 12.2 | 0.00 | 0.00 | 0.00 | 44 | 1016.7 |
| 20260906023005 | 85 | 162 | 12.2 | 14.8 | 0.00 | 0.00 | 0.00 | 44 | 1016.6 |
| 20260906022500 | 85 | 142 | 12.2 | 14.8 | 0.00 | 0.00 | 0.00 | 44 | 1016.6 |
| 20260906021955 | 86 | 161 | 9.6 | 16.5 | 0.00 | 0.00 | 0.00 | 44 | 1016.5 |
| 20260906021450 | 86 | 121 | 4.3 | 7.8 | 0.00 | 0.00 | 0.00 | 43 | 1016.2 |
| 20260906020944 | 86 | 137 | 11.3 | 13.0 | 0.00 | 0.00 | 0.00 | 43 | 1016.1 |
| 20260906020438 | 86 | 142 | 14.8 | 18.2 | 0.00 | 0.00 | 0.00 | 42 | 1015.9 |
| 20260906015932 | 86 | 150 | 8.7 | 10.4 | 0.00 | 0.00 | 0.00 | 42 | 1016.1 |
| 20260906015427 | 86 | 132 | 8.7 | 10.4 | 0.00 | 0.00 | 0.00 | 42 | 1015.9 |
| 20260906014927 | 87 | 145 | 9.6 | 12.2 | 0.00 | 0.00 | 0.00 | 41 | 1015.8 |
| 20260906014426 | 87 | 158 | 8.7 | 12.2 | 0.00 | 0.00 | 0.00 | 41 | 1015.9 |
| 20260906013923 | 87 | 153 | 8.7 | 10.4 | 0.00 | 0.00 | 0.00 | 41 | 1015.8 |
| 20260906013418 | 87 | 130 | 10.4 | 16.5 | 0.00 | 0.00 | 0.00 | 40 | 1015.5 |
| 20260906012914 | 87 | 133 | 7.8 | 10.4 | 0.00 | 0.00 | 0.00 | 41 | 1015.6 |
| 20260906012408 | 87 | 175 | 9.6 | 13.0 | 0.00 | 0.00 | 0.00 | 40 | 1015.7 |
| 20260906011907 | 88 | 106 | 10.4 | 14.8 | 0.00 | 0.00 | 0.00 | 40 | 1015.4 |
| 20260906011403 | 88 | 150 | 7.8 | 12.2 | 0.00 | 0.00 | 0.00 | 40 | 1015.5 |
| 20260906010858 | 88 | 136 | 6.1 | 8.7 | 0.00 | 0.00 | 0.00 | 40 | 1015.7 |
| 20260906010354 | 88 | 129 | 7.8 | 10.4 | 0.00 | 0.00 | 0.00 | 40 | 1015.6 |
| 20260906005850 | 89 | 146 | 10.4 | 12.2 | 0.00 | 0.00 | 0.00 | 39 | 1015.5 |
| 20260906005349 | 89 | 156 | 5.2 | 6.1 | 0.00 | 0.00 | 0.00 | 39 | 1015.7 |
| 20260906004847 | 89 | 142 | 15.6 | 18.2 | 0.00 | 0.00 | 0.00 | 39 | 1015.6 |
| 20260906004348 | 89 | 128 | 6.1 | 7.8 | 0.00 | 0.00 | 0.00 | 39 | 1015.6 |
| 20260906003843 | 90 | 95 | 9.6 | 12.2 | 0.00 | 0.00 | 0.00 | 39 | 1015.7 |
| 20260906003338 | 90 | 145 | 7.0 | 8.7 | 0.00 | 0.00 | 0.00 | 38 | 1015.6 |
| 20260906002834 | 90 | 159 | 11.3 | 18.2 | 0.00 | 0.00 | 0.00 | 38 | 1015.9 |
| 20260906002333 | 90 | 145 | 8.7 | 18.2 | 0.00 | 0.00 | 0.00 | 38 | 1015.7 |
| 20260906001829 | 90 | 112 | 11.3 | 14.8 | 0.00 | 0.00 | 0.00 | 38 | 1015.8 |
| 20260906001324 | 91 | 154 | 13.0 | 19.1 | 0.00 | 0.00 | 0.00 | 38 | 1015.4 |
| 20260906000819 | 91 | 130 | 11.3 | 16.5 | 0.00 | 0.00 | 0.00 | 38 | 1015.6 |
| 20260906000314 | 91 | 129 | 7.0 | 8.7 | 0.00 | 0.00 | 0.00 | 38 | 1015.4 |
| 20260905235809 | 91 | 157 | 7.8 | 8.7 | 0.00 | 0.00 | 0.00 | 38 | 1015.0 |
| 20260905235308 | 91 | 113 | 14.8 | 19.1 | 0.00 | 0.00 | 0.00 | 37 | 1014.8 |
| 20260905234804 | 92 | 134 | 3.5 | 6.1 | 0.00 | 0.00 | 0.00 | 37 | 1014.9 |
| 20260905234259 | 92 | 129 | 10.4 | 13.0 | 0.00 | 0.00 | 0.00 | 37 | 1014.8 |
| 20260905233754 | 92 | 152 | 8.7 | 12.2 | 0.00 | 0.00 | 0.00 | 37 | 1014.7 |
| 20260905233254 | 93 | 190 | 12.2 | 16.5 | 0.00 | 0.00 | 0.00 | 36 | 1014.7 |
| 20260905232753 | 93 | 118 | 13.9 | 18.2 | 0.00 | 0.00 | 0.00 | 36 | 1014.9 |
| 20260905232249 | 93 | 158 | 13.9 | 16.5 | 0.00 | 0.00 | 0.00 | 36 | 1014.6 |
| 20260905231745 | 93 | 164 | 13.0 | 18.2 | 0.00 | 0.00 | 0.00 | 35 | 1014.5 |
| 20260905231239 | 94 | 128 | 9.6 | 10.4 | 0.00 | 0.00 | 0.00 | 36 | 1014.5 |
| 20260905230736 | 94 | 187 | 12.2 | 13.0 | 0.00 | 0.00 | 0.00 | 35 | 1014.6 |
| 20260905230233 | 94 | 119 | 10.4 | 12.2 | 0.00 | 0.00 | 0.00 | 35 | 1014.5 |
| 20260905225733 | 94 | 151 | 10.4 | 13.0 | 0.00 | 0.00 | 0.00 | 35 | 1014.3 |
| 20260905225229 | 95 | 131 | 13.0 | 18.2 | 0.00 | 0.00 | 0.00 | 34 | 1014.6 |
| 20260905224727 | 95 | 95 | 5.2 | 8.7 | 0.00 | 0.00 | 0.00 | 34 | 1014.5 |
| 20260905224223 | 95 | 188 | 10.4 | 14.8 | 0.00 | 0.00 | 0.00 | 35 | 1014.7 |
| 20260905223719 | 95 | 111 | 14.8 | 19.1 | 0.00 | 0.00 | 0.00 | 34 | 1014.5 |
| 20260905223216 | 95 | 170 | 11.3 | 18.2 | 0.00 | 0.00 | 0.00 | 34 | 1014.6 |
| 20260905222711 | 95 | 146 | 6.1 | 8.7 | 0.00 | 0.00 | 0.00 | 34 | 1014.5 |
| 20260905222210 | 95 | 152 | 9.6 | 13.0 | 0.00 | 0.00 | 0.00 | 35 | 1014.6 |
| 20260905221706 | 95 | 129 | 9.6 | 14.8 | 0.00 | 0.00 | 0.00 | 35 | 1014.6 |
| 20260905221203 | 96 | 151 | 10.4 | 14.8 | 0.00 | 0.00 | 0.00 | 35 | 1014.6 |
| 20260905220658 | 95 | 127 | 14.8 | 20.9 | 0.00 | 0.00 | 0.00 | 36 | 1014.4 |
| 20260905220155 | 95 | 172 | 12.2 | 14.8 | 0.00 | 0.00 | 0.00 | 35 | 1014.5 |
| 20260905215654 | 96 | 161 | 7.8 | 10.4 | 0.00 | 0.00 | 0.00 | 35 | 1014.5 |
| 20260905215150 | 96 | 188 | 13.0 | 18.2 | 0.00 | 0.00 | 0.00 | 34 | 1014.7 |
| 20260905214646 | 96 | 173 | 8.7 | 12.2 | 0.00 | 0.00 | 0.00 | 35 | 1014.9 |
| 20260905214141 | 96 | 203 | 10.4 | 18.2 | 0.00 | 0.00 | 0.00 | 36 | 1014.8 |
| 20260905213636 | 96 | 245 | 8.7 | 12.2 | 0.00 | 0.00 | 0.00 | 36 | 1015.0 |
| 20260905213132 | 96 | 223 | 7.8 | 12.2 | 0.00 | 0.00 | 0.00 | 35 | 1014.9 |